[[{"header":{"parameterUnit":"m.s-1","parameterCategory":1,"la1":30.2991,"la2":30.254,"lo1":-89.0895,"lo2":-89.0444,"dy":0.0017,"dx":0.0017,"nx":28,"ny":28,"refTime":"2023-08-03T03:00:00:Z","depth":0,"parameterNumber":2,"parameterNumberName":"U-component_of_WINDS"},"data":[0,0,0,0,0,0,0,0,0,0,0,0,0,0,0,0,0,0,0,0,0,0,0,0,0,0,0,0,0,0,0,0,0,0,0,0,0,0,0,0,0,0,0,0,0,0,0,0,0,0,0,0,0,0,0,0,0,0,1.64,1.64,0,1.6432,1.6432,1.6433,1.6422,1.6421,1.642,1.642,1.6452,1.6453,1.6455,0,0,0,0,0,0,0,0,0,0,0,0,0,1.6326,1.6327,1.64,1.64,1.64,1.6432,1.6432,1.6433,1.6422,1.6421,1.642,1.6419,1.6451,1.6453,1.6455,0,0,0,0,0,0,0,0,0,0,0,0,0,1.6358,1.6328,1.6399,1.6399,1.6399,1.6432,1.6432,1.6433,1.6422,1.6421,1.642,1.6419,1.6451,1.6453,1.6455,1.649,0,0,1.6462,1.6463,0,0,0,0,0,0,0,0,1.6356,1.6361,1.6398,1.6399,1.6399,1.6422,1.6418,1.6452,1.6422,1.6413,1.642,1.6418,1.6443,1.6446,1.6454,1.6492,1.6493,1.6462,1.6464,1.6465,1.6465,0,0,0,0,0,0,0,1.6354,1.6359,1.6412,1.6399,1.6399,1.6396,1.6399,1.6424,1.6433,1.6414,1.6413,1.6417,1.6443,1.6452,1.6455,1.6494,1.6462,1.6464,1.6466,1.6467,1.6559,1.656,0,0,0,0,0,0,1.6352,1.6357,1.6411,1.6413,1.6375,1.6398,1.6402,1.6416,1.6433,1.6435,1.6418,1.6417,1.6448,1.6452,1.6456,1.6496,1.6465,1.6467,1.6468,1.6558,1.6559,1.656,0,0,0,0,0,0,1.635,1.6357,1.641,1.6385,1.6392,1.6401,1.6416,1.6417,1.6426,1.6436,1.6438,1.6426,1.6448,1.6453,1.6481,1.6497,1.6468,1.647,1.6557,1.6558,1.656,1.6577,0,0,0,0,0,0,1.6348,1.6356,1.637,1.6386,1.6393,1.6436,1.6417,1.6418,1.643,1.6428,1.6444,1.6446,1.6447,1.6478,1.6483,1.6499,1.6472,1.6555,1.6557,1.6559,1.6576,1.658,1.6583,0,0,0,0,0,1.6345,1.6375,1.6371,1.6378,1.6411,1.6437,1.6441,1.6443,1.6431,1.6445,1.6451,1.6445,1.6494,1.6481,1.6487,1.6504,1.6554,1.6557,1.6559,1.6574,1.6579,1.6583,0,0,0,0,0,0,1.6362,1.6377,1.6373,1.6408,1.6421,1.6435,1.6452,1.6448,1.6465,1.6462,1.6463,1.6467,1.6496,1.6503,1.6488,1.6537,1.6522,1.6526,1.6532,1.6536,1.654,1.6537,1.6474,0,0,0,0,0,1.6369,1.6389,1.6401,1.6431,1.6438,1.6444,1.6455,1.6455,1.6469,1.6474,1.6483,1.6495,1.6513,1.6525,1.6543,1.6577,1.6579,1.6591,1.6595,1.6598,1.6601,1.6616,1.6621,1.6568,1.6568,1.6568,0,0,1.6385,1.6396,1.6409,1.6434,1.6445,1.6464,1.6449,1.6471,1.6485,1.6477,1.6504,1.6511,1.6525,1.6556,1.657,1.6563,1.6616,1.6601,1.6603,1.6604,1.6619,1.6624,1.6629,1.657,1.657,1.6569,0,0,1.6424,1.6435,1.646,1.647,1.6485,1.6488,1.6494,1.6508,1.6512,1.6539,1.6533,1.6549,1.6581,1.6591,1.66,1.6639,1.6633,1.6645,1.6664,1.6679,1.6683,1.6687,1.6699,1.6703,1.6648,1.6648,1.6648,0,1.6442,1.6472,1.6473,1.6495,1.6505,1.6498,1.6522,1.6532,1.6552,1.6559,1.6551,1.6588,1.6598,1.6629,1.6639,1.6647,1.6652,1.6643,1.6683,1.6686,1.669,1.6701,1.6706,1.6649,1.6649,1.6649,1.6649,0,1.6492,1.6512,1.653,1.6549,1.6561,1.6584,1.6587,1.66,1.6598,1.6602,1.6628,1.6639,1.6657,1.6665,1.6664,1.6695,1.669,1.6682,1.6667,1.6696,1.6706,1.6711,1.6651,1.665,1.665,1.665,0,0,1.6543,1.656,1.6566,1.6573,1.6588,1.6604,1.6625,1.6643,1.6652,1.6666,1.6682,1.6708,1.67,1.6711,1.6711,1.6724,1.6752,1.6714,1.6715,1.6719,1.6784,1.6789,1.6794,1.6748,1.6749,1.675,1.6782,0,1.6581,1.6619,1.6619,1.6653,1.6671,1.6664,1.6682,1.6692,1.6696,1.6711,1.6715,1.6733,1.6722,1.6728,1.6741,1.6746,1.6764,1.6743,1.6762,1.6763,1.6757,1.68,1.6806,1.6836,1.6787,1.6788,1.6788,0,1.6632,1.6645,1.6681,1.6691,1.6698,1.6715,1.6729,1.6744,1.6755,1.6756,1.6766,1.6764,1.6784,1.6768,1.6795,1.6781,1.6788,1.6792,1.6793,1.6794,1.6776,1.68,1.6846,1.685,1.6795,1.6795,1.6794,0,1.6662,1.669,1.6714,1.6721,1.6733,1.6744,1.675,1.676,1.677,1.6782,1.6788,1.6803,1.6811,1.6822,1.6823,1.6812,1.6849,1.6834,1.6849,1.6849,1.6857,1.6856,1.6903,1.6864,1.6864,1.6864,1.6864,0,1.6704,1.6726,1.6727,1.6742,1.6765,1.6765,1.6788,1.6792,1.6801,1.6815,1.6811,1.6824,1.6825,1.6838,1.6839,1.686,1.6864,1.6864,1.6864,1.6864,1.6864,1.6868,1.6866,1.6865,1.6865,1.6865,1.6865,0,1.6742,1.6745,1.677,1.6779,1.6782,1.6798,1.6806,1.6819,1.6822,1.684,1.6844,1.6848,1.6864,1.6865,1.6884,1.6884,1.6908,1.6907,1.6904,1.6904,1.6918,1.6916,1.6968,1.6974,1.6933,1.6933,1.6934,0,1.6769,1.6785,1.6795,1.6804,1.681,1.6825,1.6834,1.6834,1.6843,1.6855,1.6867,1.6881,1.6893,1.6918,1.6922,1.6936,1.6933,1.695,1.6935,1.6934,1.6931,1.6929,1.693,1.6953,1.6953,1.6954,1.6954,0,1.6814,1.6813,1.6827,1.684,1.685,1.6861,1.6871,1.6878,1.6879,1.689,1.6905,1.6914,1.6932,1.6946,1.6958,1.6964,1.6958,1.6959,1.6963,1.6962,1.6959,1.6959,1.6911,1.6957,1.6957,1.6957,1.6957,1.6957,1.6845,1.6858,1.6866,1.6881,1.6888,1.6896,1.6908,1.6912,1.6924,1.6938,1.6937,1.6954,1.6962,1.6978,1.6984,1.6996,1.699,1.6996,1.6998,1.6999,1.6999,1.6958,1.6999,1.6999,1.6998,1.6998,1.6998,0,1.6889,1.6893,1.6906,1.6919,1.6929,1.6923,1.6933,1.6942,1.6957,1.6965,1.6976,1.6992,1.7005,1.701,1.7022,1.7031,1.7028,1.7034,1.7032,1.7033,1.7005,1.6999,1.7035,1.7035,1.7035,1.7035,1.7035,1.7035,1.6912,1.6933,1.6933,1.6956,1.696,1.6976,1.6981,1.6989,1.6994,1.7013,1.7023,1.7026,1.7032,1.7044,1.7055,1.7056,1.706,1.7066,1.7066,1.7039,1.7035,1.7032,1.7027,1.7068,1.7068,1.7093,1.7093,1.7094]},{"header":{"parameterUnit":"m.s-1","parameterCategory":1,"la1":30.2991,"la2":30.254,"lo1":-89.0895,"lo2":-89.0444,"dy":0.0017,"dx":0.0017,"nx":28,"ny":28,"refTime":"2023-08-03T03:00:00:Z","depth":0,"parameterNumber":3,"parameterNumberName":"V-component_of_WINDS"},"data":[0,0,0,0,0,0,0,0,0,0,0,0,0,0,0,0,0,0,0,0,0,0,0,0,0,0,0,0,0,0,0,0,0,0,0,0,0,0,0,0,0,0,0,0,0,0,0,0,0,0,0,0,0,0,0,0,0,0,1.1468,1.1468,0,1.1471,1.1471,1.1471,1.1424,1.1423,1.1421,1.142,1.1424,1.1425,1.1426,0,0,0,0,0,0,0,0,0,0,0,0,0,1.1421,1.1422,1.1468,1.1468,1.1468,1.1471,1.1471,1.1471,1.1424,1.1423,1.1421,1.142,1.1423,1.1425,1.1426,0,0,0,0,0,0,0,0,0,0,0,0,0,1.1434,1.1422,1.1468,1.1445,1.1443,1.1471,1.1471,1.1471,1.1425,1.1423,1.1421,1.1419,1.1423,1.1425,1.1427,1.1477,0,0,1.1432,1.1433,0,0,0,0,0,0,0,0,1.1434,1.1436,1.1448,1.1447,1.1444,1.1445,1.1455,1.1473,1.1425,1.1432,1.142,1.1418,1.1432,1.1433,1.1438,1.1477,1.1477,1.1433,1.1434,1.1435,1.1435,0,0,0,0,0,0,0,1.1433,1.1436,1.1469,1.1449,1.1446,1.1434,1.1434,1.1458,1.1443,1.1431,1.1427,1.1428,1.1431,1.1436,1.1438,1.1477,1.1433,1.1434,1.1435,1.1436,1.1554,1.1556,0,0,0,0,0,0,1.1435,1.1435,1.1469,1.1469,1.1434,1.1437,1.1436,1.1447,1.1442,1.144,1.143,1.1426,1.1434,1.1436,1.1438,1.1494,1.1435,1.1436,1.1437,1.1552,1.1554,1.1556,0,0,0,0,0,0,1.1434,1.1438,1.1469,1.1451,1.1454,1.1439,1.1451,1.1448,1.1453,1.1442,1.1439,1.1439,1.1433,1.1435,1.1467,1.1494,1.1437,1.1439,1.155,1.1553,1.1555,1.1609,0,0,0,0,0,0,1.1433,1.1438,1.1458,1.1452,1.1455,1.1498,1.1453,1.1449,1.1457,1.1452,1.1449,1.1447,1.1431,1.1464,1.1469,1.1496,1.144,1.1547,1.1551,1.1554,1.1605,1.1614,1.1621,0,0,0,0,0,1.1431,1.1474,1.1459,1.1463,1.1479,1.15,1.1502,1.1483,1.1459,1.1478,1.147,1.1447,1.149,1.1468,1.1472,1.15,1.1545,1.155,1.1554,1.1601,1.1612,1.1621,0,0,0,0,0,0,1.1484,1.1473,1.1456,1.1498,1.15,1.1492,1.1516,1.1496,1.1505,1.15,1.1477,1.1476,1.1511,1.1509,1.1484,1.1547,1.1513,1.1519,1.1548,1.1558,1.1566,1.1565,1.1442,0,0,0,0,0,1.15,1.1518,1.1507,1.1545,1.1547,1.1531,1.1539,1.1524,1.1526,1.1527,1.1521,1.1524,1.1537,1.1547,1.156,1.1604,1.1602,1.1625,1.1633,1.164,1.1645,1.1667,1.1676,1.1571,1.1571,1.1571,0,0,1.1535,1.153,1.1543,1.1555,1.1555,1.1574,1.1532,1.1554,1.1567,1.153,1.1559,1.1555,1.1556,1.1594,1.161,1.1593,1.1674,1.1646,1.1651,1.1653,1.1672,1.1682,1.1691,1.1574,1.1573,1.1573,0,0,1.1606,1.1605,1.1636,1.1636,1.1636,1.1624,1.1632,1.1626,1.1622,1.165,1.1622,1.1637,1.1662,1.1663,1.1667,1.1736,1.1714,1.1741,1.1783,1.1804,1.1812,1.1819,1.1843,1.1852,1.1746,1.1746,1.1746,0,1.1649,1.1676,1.1654,1.1677,1.1682,1.1648,1.1678,1.1679,1.1684,1.1688,1.1668,1.1697,1.1696,1.1732,1.1748,1.1753,1.176,1.1741,1.1813,1.182,1.1826,1.1848,1.1857,1.1749,1.1749,1.1748,1.1748,0,1.1727,1.1746,1.177,1.1774,1.1782,1.1808,1.179,1.18,1.1784,1.1775,1.1803,1.1799,1.1809,1.1817,1.1802,1.185,1.184,1.1817,1.1782,1.184,1.186,1.1868,1.1753,1.1752,1.1751,1.1751,0,0,1.1834,1.1823,1.1832,1.1832,1.1829,1.1843,1.1866,1.1875,1.1884,1.1888,1.1907,1.1927,1.1905,1.191,1.1894,1.1913,1.1965,1.1887,1.1887,1.1901,1.2017,1.2034,1.2044,1.1951,1.1952,1.1953,1.2016,0,1.1903,1.1943,1.1922,1.1965,1.1981,1.1948,1.1968,1.1968,1.1959,1.1971,1.1961,1.1975,1.1946,1.1948,1.1965,1.1955,1.1988,1.1951,1.1967,1.1968,1.1968,1.2055,1.2073,1.2133,1.2024,1.2026,1.2027,0,1.1989,1.1994,1.2038,1.2029,1.2035,1.2054,1.2059,1.2071,1.2069,1.2061,1.2064,1.2044,1.2066,1.2031,1.206,1.2035,1.204,1.2036,1.2038,1.2039,1.2001,1.2057,1.2152,1.2161,1.2039,1.2038,1.2037,0,1.2061,1.2079,1.2107,1.2108,1.2099,1.2112,1.2109,1.2105,1.2111,1.2115,1.2118,1.2126,1.213,1.2136,1.2117,1.2094,1.2148,1.2112,1.2141,1.2142,1.2155,1.2154,1.2251,1.2159,1.2159,1.2159,1.2158,0,1.2139,1.2167,1.2139,1.2156,1.2186,1.2161,1.2191,1.2184,1.218,1.2195,1.2167,1.2181,1.2156,1.2167,1.2153,1.2178,1.2181,1.2174,1.217,1.2177,1.2177,1.218,1.2175,1.2161,1.2161,1.216,1.216,0,1.2225,1.2207,1.2235,1.2223,1.222,1.2243,1.2232,1.2247,1.2235,1.2254,1.2257,1.2239,1.225,1.2232,1.2243,1.2232,1.2267,1.2257,1.2268,1.2265,1.2294,1.2292,1.2396,1.2408,1.2309,1.231,1.2311,0,1.2277,1.2297,1.2286,1.2293,1.2291,1.2304,1.2309,1.2285,1.2292,1.2289,1.2304,1.2313,1.232,1.234,1.2327,1.2334,1.2324,1.236,1.2325,1.233,1.2323,1.2322,1.2323,1.2367,1.2368,1.2369,1.237,0,1.2369,1.2359,1.2367,1.2372,1.2378,1.2381,1.2382,1.239,1.2364,1.2373,1.2384,1.2389,1.2398,1.2407,1.241,1.2406,1.2384,1.2381,1.2388,1.2395,1.24,1.2397,1.2287,1.2379,1.2378,1.2377,1.2377,1.2376,1.2439,1.2454,1.2448,1.2458,1.2455,1.2456,1.2469,1.2458,1.2467,1.2472,1.2457,1.2471,1.2466,1.2469,1.2467,1.2477,1.2461,1.2472,1.2474,1.2477,1.2481,1.2398,1.2478,1.2478,1.2477,1.2477,1.2477,0,1.2529,1.2523,1.2532,1.2533,1.254,1.2517,1.2516,1.2523,1.2536,1.2533,1.2539,1.2551,1.2559,1.2546,1.2552,1.2563,1.2552,1.2565,1.2564,1.2563,1.2496,1.2489,1.2573,1.2573,1.2573,1.2573,1.2573,1.2573,1.2577,1.2601,1.259,1.2612,1.2606,1.2619,1.262,1.262,1.2617,1.2631,1.2637,1.2629,1.2621,1.2626,1.2632,1.2628,1.2631,1.2647,1.264,1.2577,1.2568,1.2559,1.2552,1.2648,1.2648,1.2705,1.2706,1.2706]}]]